Location: Lecco
(45.8566°N, 9.3977°E)
Time: 08:39:01
(UTC+02:00)

Altair - Pass Details

Date: 14 August 2020
Orbit: 1501 x 1682 km, 47.2° (Epoch: 25 September)

Event Time Altitude Azimuth Distance (km) Brightness Sun altitude
Rises 07:29:56 0° 286° (WNW) 4,733 9.5 10.6°
Reaches altitude 10° 07:33:02 10° 285° (WNW) 3,727 9.0 11.2°
Maximum altitude 07:42:25 82° 200° (SSW) 1,529 7.7 12.8°
Drops below altitude 10° 07:51:35 10° 114° (ESE) 3,648 10.7 14.4°
Sets 07:54:35 0° 114° (ESE) 4,629 11.1 14.9°
